Showing default

ALOUETTE 1 (S-27), 424

Orbit data source: Space-Track

ALOUETTE 1 (S-27), 424 is a payload satellite owned by DRTE (CA) in LEO that was launched on Sat, 29 Sep 1962 UTC via a THOR AGENA B launch vehicle from the Air Force Western Test Range (AFWTR). Payloads include a variety of satellites, spacecraft, and rockets equipped with specific instruments for various scientific and technological missions. These include communications satellites like Starlink; space stations such as the ISS; scientific satellites like the Hubble; Earth observation satellites from companies like Planet Labs, Umbra, and HawkEye 360; GPS; miniature CubeSats for education and research; and military/defense satellites.

Loading next visibility...
ALOUETTE 1 (S-27) details
Identifier
424, 1962-049A
Orbit
LEO
Last TLE update4 hours ago
Origin
Flag of CADRTE (CA)
ManufacturerDEHAVT/RCAV
MissionCivil Science
Bus & MotorALOUETTE, Unknown motor
Mass145 kg wet, 145 kg dry
Launch date (UTC)
1962-09-29 (62 years ago)
Launch vehicle
THOR AGENA B
Launch site
Air Force Western Test Range (AFWTR)
Object type
Payload
Rocket body
Debris
Shape & HBREll, 1.07 m
Radar Cross Section0.784 m², Large (>1 m²)

Expand to show TLE details & history

TLE from 4 hours ago
0 ALOUETTE 1 (S-27)
1   424U 62049A   25015.14937096  .00000121  00000-0  12813-3 0  9995
2   424  80.4656  48.9727 0023845 132.6999 227.6160 13.69468468110392
Epoch: 2025-01-15T03:35Z
Definitive object data (Epoch: 2025-01-15T03:35:05.65Z)
Latitude-0.00006°
Longitude-119.64671°
Altitude1,016.185 km
Speed7.338 km/s
True Right ascension03h 15m 53s
True Declination0° 00' 00"
Sunlit
Object was in daylight at TLE epoch
Visualization TLE readout
Latitude1.33245°
Longitude59.95034°
Altitude991.956 km
Speed7.362 km/s
Apparent Right ascension17h 16m 53s
Apparent Declination-22° 21' 29"
Sunlit
Object is in daylight
Visualization observer readout
Local Sidereal Time08:37:09
Azimuth82.835° E
Elevation-44.377°
Doppler factor1
Orbital elements
Apogee altitude1,016.337 km
Perigee altitude981.157 km
Semi-major axis7,376.884 km
Eccentricity0.0023845
Inclination80.4656°
RAAN48.9727°
Arg. of periapsis132.6999°
True anomaly227.41458°
Mean anomaly227.616°
Eccentric anomaly227.51525°
Mean motion3.42558 °/min
BSTAR0.00012813
Orbital period105.09 mins
Loading maneuver chart data...
Loading historical data...
Loading historical data...
Loading historical data...
Loading historical data...
Loading historical data...
Loading historical data...
Loading historical data...
Other satellites on launch #49 in the year 1962 (1962-09-29 UTC)

ALOUETTE 1 (S-27) Visibility forecast

Observer location: undefined°, undefined

Span
Click to sort rows by Start time (UTC) header in descending order
Start Az.
Max El. time (UTC)
Max El. Az.
Max El.
End time (UTC)
End Az.
10 mins2025-01-15 12:55:31.893Z10.002° NNE2025-01-15 13:00:31.893Z63.851° ENE26.985°2025-01-15 13:05:31.893Z126.596° SE
10 mins2025-01-15 14:42:31.893Z329.392° NNW2025-01-15 14:47:31.893Z261.053° W31.893°2025-01-15 14:52:31.893Z203.675° SW
11 mins2025-01-16 02:29:31.893Z167.501° S2025-01-16 02:34:31.893Z90.866° ESE39.558°2025-01-16 02:40:31.893Z19.315° NNE
8 mins2025-01-16 04:17:31.893Z252.355° W2025-01-16 04:21:31.893Z299.102° NW20.829°2025-01-16 04:25:31.893Z340.553° N
|